weather.gov     
National Weather Service

Regional Weather Roundup
NWS Homepage
This page is being discontinued on March 12, 2014.
The same data is available at this site. Please update your bookmarks.
Thank you, and we apologize for the inconvenience.
Please send an email to SR-SRH.Webmaster@noaa.gov with any concerns.


Current Version
Previous Version:    01  02  03  04  05  06  07  08  09  10  11  12  13  14  15  16  17  18  19  20  21  22  23  24  25  26  
[Printable]
043
ASUS41 KAKQ 011410
RWRAKQ

REGIONAL WEATHER ROUNDUP
NATIONAL WEATHER SERVICE WAKEFIELD VA
900 AM EST SUN FEB 01 2015

Note: "fair" indicates few or no clouds below 12,000 feet with no
significant weather and/or obstructions to visibility. * = Denotes
station may not report precipitation (e.g., rain,snow,etc.),
thunder or fog.

VAZ042-051-052>054-056-011500-
NORTHERN VIRGINIA

CITY           SKY/WX    TMP DP  RH WIND       PRES   REMARKS
WASH NATIONAL  CLOUDY    34  17  50 S3        30.30S
DULLES         CLOUDY    31  14  49 S7        30.27F
FORT BELVOIR   PTSUNNY   30  18  61 E1        30.29F
QUANTICO       CLOUDY    32  16  51 CALM      30.31S
FREDERICKSBRG* PTSUNNY   31  19  61 CALM      30.28S
STAFFORD*      CLOUDY    30  16  55 CALM      30.32F
WARRENTON      CLOUDY    32  24  72 CALM      30.26S
CULPEPER*      PTSUNNY   30  21  69 CALM      30.28S
MANASSAS*      CLOUDY    28  23  80 CALM      30.30R
LEESBURG*      CLOUDY    32  23  69 CALM      30.26F
WINCHESTER     CLOUDY    34  14  44 S3        30.22S
FRONT ROYAL*   CLOUDY    30  21  69 CALM      30.22S
LURAY*         CLOUDY    32  25  74 CALM      30.21F
$$

VAZ048-049-060>072-079>083-011500-
CENTRAL AND SOUTH CENTRAL VIRGINIA

CITY           SKY/WX    TMP DP  RH WIND       PRES   REMARKS
RICHMOND       PTSUNNY   33  21  61 SE9       30.27F
CHESTERFIELD*  PTSUNNY   30  10  43 S8        30.30S
PETERSBURG*    PTSUNNY   32  21  63 CALM      30.31R
HANOVER        MOSUNNY   32  18  56 E8        30.28F
TAPPAHANNOCK*  PTSUNNY   33  18  53 SE5       30.30F
QUINTON*       FAIR      32  21  63 E6        30.28F
CHARLOTTSVILLE CLOUDY    31  11  43 CALM      30.25F
GORDONSVILLE*  CLOUDY    31  13  46 CALM      30.26S
ORANGE*        CLOUDY    32  18  55 S3        30.28S
LOUISA*        PTSUNNY   32  19  59 SE5       30.25S
BUMPASS*       CLOUDY    32  19  58 CALM      30.27R
FARMVILLE*     CLOUDY    35  17  47 N5        30.26F
CREWE*         PTSUNNY   34  13  42 CALM      30.26F
FORT PICKETT*  PTSUNNY   35  13  40 SE5       30.27S
CHASE CITY*    CLOUDY    38  21  51 CALM      30.26R
CLARKSVILLE*   CLOUDY    36  23  60 CALM      30.26R
SOUTH HILL*    CLOUDY    33  22  62 CALM      30.32F
LAWRENCEVILLE* PTSUNNY   33  20  57 CALM      30.27F
EMPORIA*       PTSUNNY   32  23  69 CALM      30.31S
$$

VAZ088>098-011500-
SOUTHEAST VIRGINIA

CITY           SKY/WX    TMP DP  RH WIND       PRES   REMARKS
NORFOLK        MOSUNNY   38  26  62 E5        30.30S
VIRGINIA BEACH PTSUNNY   36  26  67 CALM      30.30S
NORFOLK NAVAL  PTSUNNY   41  28  60 E8        30.31F
WEST POINT*    MOSUNNY   37  21  52 SE3       30.32S
SALUDA*        CLOUDY    34  22  61 CALM      30.29F
NEWPORT NEWS   SUNNY     37  26  64 E6        30.30F
LANGLEY AFB    PTSUNNY   37  26  65 E9        30.29F
FORT EUSTIS    MOSUNNY   34  25  69 VRB3      30.28F
WILLIAMSBURG*    N/A     34  30  86 E6        30.30F
HR EXEC AP*    FAIR      32  25  74 CALM      30.33S
FRANKLIN*      PTSUNNY   31  21  66 CALM      30.31S
WAKEFIELD      MOSUNNY   33  21  61 E3        30.29F
$$

VAZ020-022-025-037-045-011500-
WEST CENTRAL AND SOUTHWEST VIRGINIA

CITY           SKY/WX    TMP DP  RH WIND       PRES   REMARKS
STAUNTON*      CLOUDY    32  22  68 CALM      30.22F
WAYNESBORO*    CLOUDY    34  13  42 CALM      30.19F
HOT SPRINGS VA CLOUDY    34  25  70 SW5       30.11R
LYNCHBURG      CLOUDY    38  16  40 CALM      30.26R
DANVILLE       CLOUDY    38  20  48 CALM      30.26S
SOUTH BOSTON*  CLOUDY    35  23  61 CALM      30.26S
MARTINSVILLE   CLOUDY    35  20  55 CALM      30.25F
ROANOKE        CLOUDY    37  15  40 CALM      30.24F
BLACKSBURG     CLOUDY    33  16  49 W3        30.23R
DUBLIN*        CLOUDY    34  22  61 CALM      30.19F
MARION*        CLOUDY    35  13  39 E6        30.16F
HILLSVILLE*    CLOUDY    36  10  35 CALM      30.14F
RICHLANDS*     FAIR      40  13  33 SE3       30.10S
WISE*          CLOUDY    39   5  24 SE3       30.09F
ABINGDON*      CLOUDY    39  13  34 E7        30.12S
$$

MDZ021>025-VAZ099-100-011500-
SOUTHERN MARYLAND AND THE DELMARVA PENINSULA

CITY           SKY/WX    TMP DP  RH WIND       PRES   REMARKS
PATUXENT RIVER PTSUNNY   34  23  64 S6        30.29F
BAY BRIDGE APT   N/A     32  25  74 CALM      30.29S
LEONARDTOWN    CLOUDY    32  27  80 S5        30.30S
DOVER          MOSUNNY   28  19  70 SW7       30.28S
GEORGETOWN     CLOUDY    27  18  69 CALM      30.30R
EASTON         MOSUNNY   30  21  69 CALM      30.32R
CAMBRIDGE      PTSUNNY   32  23  69 S5        30.28F
SALISBURY      CLOUDY    30  18  60 S5        30.30F
OCEAN CITY     MOSUNNY   31  17  56 SW6       30.31R
WALLOPS ISLAND CLOUDY    33  22  63 S5        30.32S
ACCOMACK*      CLOUDY    34  21  60 SE3       30.31F
$$

NCZ012>017-030>032-011500-
NORTH CENTRAL AND EASTERN NORTH CAROLINA

CITY           SKY/WX    TMP DP  RH WIND       PRES   REMARKS
ROANOKE RAPIDS CLOUDY    34  27  75 CALM      30.28F
RALEIGH        PTSUNNY   40  20  44 CALM      30.29R
ELIZABETH CITY PTSUNNY   35  24  64 CALM      30.32R
AHOSKIE*       PTSUNNY   33  27  78 CALM      30.31S
EDENTON*       CLOUDY    39  23  53 W3        30.31S
CURRITUCK*     CLOUDY    34  23  63 CALM      30.32R
KILL DEVIL HLS PTSUNNY   39  26  58 W5        30.30R
MANTEO         PTSUNNY   37  27  65 W5        30.32R
CAPE HATTERAS  MOSUNNY   46  30  53 W7        30.32S
TARBORO*       CLOUDY    38  26  61 CALM      30.30F
GOLDSBORO      MOSUNNY   41  31  66 CALM      30.29F
WASHINGTON     CLOUDY    36  25  63 CALM      30.32S
GREENVILLE     CLOUDY    37  23  56 CALM      30.31F
NEW BERN       PTSUNNY   42  27  55 SW6       30.34R
WILMINGTON     PTSUNNY   43  34  70 S5        30.33S
$$

VAZ048-011500-
ELSEWHERE

CITY           SKY/WX    TMP DP  RH WIND       PRES   REMARKS
HARRISBURG PA  FLURRIES  26  16  65 SE3       30.24S
BALTIMORE      CLOUDY    29  17  61 CALM      30.28S
ANNAPOLIS      CLOUDY    30  13  49 CALM      30.29R
ANDREWS AFB    PTSUNNY   31  18  58 SW5       30.27S
PHILADELPHIA   CLOUDY    28  15  58 SW8       30.27S
HENDERSON NC   PTSUNNY   38  19  46 CALM      30.27R
GREENSBORO     CLOUDY    40  22  48 SE3       30.22F
ROCKY MOUNT    PTSUNNY   39  23  52 S3        30.29F
$$

VAZ100-011500-
MARINE

STATION/POSITION TIME  TEMP    WIND        PRES    WAVE   SWELL
                       AIR SEA DIR/SP/G            HT/PER HT/PER
                 (UTC) (F)     (DEG/KT/KT) (MB)    (FT/S) (FT/S)
BRANDYWINE LGT   1400   30 35  250/ 12/ 14 1025.5F
CAPE MAY NJ      1400   31 33              1025.2R
LEWES DE         1400   28 35  230/  6/  8 1025.7R
15NM E FENWICK I 1400   36 39              1025.6R   2/12
OCEAN-CITY-INLET 1400   31 37  250/  5/  6 1025.7F
WACHAPREAGUE VA  1400   36 33  150/  1/  3 1026.5F
THOMAS POINT MD  1400   29 34  270/  5/  6 1026.9R
GOOSES REEF MD   1400   34     VRB 10/ 12  1024.7S
COVE POINT MD    1400   32     190/ 11/ 12 1025.4F
SOLOMONS ISLAND  1400      35                N/A
BISHOPS HEAD MD  1400   32 30  160/  9/ 10 1025.4F
PINEY POINT MD   1400          170/  6/  7   N/A
POTOMAC MD       1400   34     180/  8/ 10 1025.0S
CAMBRIDGE MD     1400   31 33  180/  6/  9 1025.4F
LEWISETTA VA     1400   34 34  180/  4/  5 1025.6F
RAPPAHANNOCK LGT 1400          110/  7/  8 1026.7F
STINGRAY PT      1400   36     140/ 10/ 12 1026.5F
YORK RVR RNG VA  1400   37     110/ 12/ 13 1025.2F
YORKTOWN VA      1400   37 38  110/  9/ 11 1025.7F
JAMESTOWN VA     1400   32     110/  4/  6   N/A
DOMINION TERM VA 1400   37      80/  9/ 12 1025.8F
KIPTOPEKE VA     1400      41  100/  6/  8   N/A
CHES BAY BRIDGE  1400   38 39   60/ 14/ 15 1025.6F
CAPE HENRY VA    1400   39      70/ 13/ 13 1024.8F
CHESAPEAKE LGHT  1300   38      70/ 14/ 14 1026.7R
WILLOUBY STN VA  1400   38      80/ 12/ 13 1026.1F
S CRANEY ISL VA  1400           60/  1/  2 1026.0F
CAPE HENRY BUOY  1400      42                N/A     2/ 7
1ST LANDING BUOY 1400   39      80/ 12/ 14 1025.8S
CAPE CHARLES BUO 1400      40                N/A     2/ 8   2/ 8
OFFSHORE WE BUOY 1400      43                N/A     3/ 7   2/ 7
64NM E OF VA BCH 1400   43 48   40/  4/  6 1025.8R   4/ 7   3/ 7
DUCK PIER NC     1400   37 40  350/  5/  6 1025.5R
44100 DUCK FRF   1400      43                N/A     3/ 7
44056 DUCK FRF   1400      40                N/A     2/ 6
OREGON INLET NC  1400   38 37  240/  4/  5 1026.3F
HATTERAS NC      1400   45 44  260/  8/ 10 1026.9F




U.S. Dept. of Commerce
NOAA National Weather Service
1325 East West Highway
Silver Spring, MD 20910
E-mail: w-nws.webmaster@noaa.gov
Page last modified: May 16, 2007
NATIONAL WEATHER SERVICE: for Safety, for Work, for Fun - FOR LIFE